This is the latest recevied weather packets stored in our database for station/object OE3MHU-13. If no packets are shown the sender has not sent any weather packets the latest 10 day(s).
| Time | Temp. | Humidity | Pressure | Rain* | Wind** | Luminosity | Snow |
|---|---|---|---|---|---|---|---|
| 1777425979 | 6.67° C | 55% | 1024 hPa | 0 mm | - | - | - |
| 1777425677 | 6.67° C | 55% | 1024.1 hPa | 0 mm | - | - | - |
| 1777425378 | 7.22° C | 55% | 1024.1 hPa | 0 mm | - | - | - |
| 1777425077 | 7.22° C | 55% | 1024.2 hPa | 0 mm | - | - | - |
| 1777424777 | 7.22° C | 55% | 1024.1 hPa | 0 mm | - | - | - |
| 1777424475 | 7.22° C | 55% | 1024.1 hPa | 0 mm | - | - | - |
| 1777424317 | 7.22° C | 53% | 1024 hPa | 0 mm | - | - | - |
| 1777424175 | 7.22° C | 53% | 1024 hPa | 0 mm | - | - | - |
| 1777423871 | 7.78° C | 52% | 1024.1 hPa | 0 mm | - | - | - |
| 1777423569 | 7.78° C | 52% | 1024 hPa | 0 mm | - | - | - |
| 1777423266 | 7.78° C | 51% | 1024.2 hPa | 0 mm | - | - | - |
| 1777422967 | 8.33° C | 49% | 1024.1 hPa | 0 mm | - | - | - |
| 1777422667 | 8.33° C | 48% | 1024.1 hPa | 0 mm | - | - | - |
| 1777422366 | 8.33° C | 49% | 1024 hPa | 0 mm | - | - | - |
| 1777422065 | 8.33° C | 48% | 1024.1 hPa | 0 mm | - | - | - |
| 1777421765 | 8.89° C | 46% | 1024.1 hPa | 0 mm | - | - | - |
| 1777421463 | 8.89° C | 43% | 1024.1 hPa | 0 mm | - | - | - |
| 1777421159 | 9.44° C | 42% | 1024.1 hPa | 0 mm | - | - | - |
| 1777420857 | 8.89° C | 43% | 1024.1 hPa | 0 mm | - | - | - |
| 1777420557 | 8.89° C | 44% | 1024 hPa | 0 mm | - | - | - |
| 1777420257 | 8.89° C | 45% | 1023.9 hPa | 0 mm | - | - | - |
| 1777419950 | 8.89° C | 46% | 1023.9 hPa | 0 mm | - | - | - |
| 1777419644 | 8.89° C | 47% | 1023.9 hPa | 0 mm | - | - | - |
| 1777419339 | 8.89° C | 50% | 1023.9 hPa | 0 mm | - | - | - |
| 1777419032 | 8.89° C | 50% | 1023.9 hPa | 0 mm | - | - | - |
* Rain latest hour (hover to see other rain measurements)
** Current wind speed in m/s (hover to see current wind gust speed)